Regional Weather Roundup
Issued by NWS Wakefield, VA

Home | Current Version | Previous Version | Graphics & Text | Print | Product List | Glossary On
Versions: 1 2 3 4 5 6 7 8 9 10 11 12 13 14 15 16 17 18 19 20 21 22 23 24 25 26 27 28 29 30 31 32 33 34 35 36 37 38 39 40 41 42 43 44 45 46 47 48 49 50
000
ASUS41 KAKQ 040314
RWRAKQ

REGIONAL WEATHER ROUNDUP
NATIONAL WEATHER SERVICE WAKEFIELD VA
1100 PM EDT SUN MAY 03 2015

Note: "fair" indicates few or no clouds below 12,000 feet with no
significant weather and/or obstructions to visibility. * = Denotes
station may not report precipitation (e.g., rain,snow,etc.),
thunder or fog.

VAZ042-051-052>054-056-040400-
NORTHERN VIRGINIA

CITY           SKY/WX    TMP DP  RH WIND       PRES   REMARKS
WASH NATIONAL  CLEAR     65  54  67 S7        30.15R
DULLES         PTCLDY    60  46  59 S3        30.15R
FORT BELVOIR   CLEAR     55  50  85 CALM      30.15R
QUANTICO       CLEAR     60  51  72 NW5       30.16R
FREDERICKSBRG* CLEAR     62  52  70 CALM      30.15R
STAFFORD*      CLEAR     54  47  77 CALM      30.20R
WARRENTON      CLEAR     53  49  87 CALM      30.15R
CULPEPER*      NOT AVBL
MANASSAS*      CLEAR     55  52  88 CALM      30.15R
LEESBURG*      CLEAR     61  48  63 W3        30.15S
WINCHESTER     CLEAR     64  36  34 SW3       30.15S
FRONT ROYAL*   FAIR      61  45  55 S5        30.15R
LURAY*         FAIR      55  46  71 CALM      30.17R
$$

VAZ048-049-060>072-079>083-040400-
CENTRAL AND SOUTH CENTRAL VIRGINIA

CITY           SKY/WX    TMP DP  RH WIND       PRES   REMARKS
RICHMOND       MOCLDY    63  46  54 CALM      30.17R
CHESTERFIELD*  FAIR      57  43  58 CALM      30.19R
PETERSBURG*    PTCLDY    52  50  93 CALM      30.18S
HANOVER        CLEAR     56  48  74 CALM      30.18R
TAPPAHANNOCK*  CLEAR     61  41  47 S5        30.18R
QUINTON*       FAIR      57  49  76 E6        30.17S
CHARLOTTSVILLE CLEAR     62  42  47 CALM      30.17R
GORDONSVILLE*  FAIR      52  48  86 CALM      30.16S
ORANGE*        CLEAR     55  46  71 CALM      30.18S
LOUISA*        CLEAR     57  48  72 CALM      30.16S
BUMPASS*       FAIR      57  47  71 CALM      30.17R
FARMVILLE*     CLEAR     56  47  72 CALM      30.18R
CREWE*         FAIR      54  49  85 CALM      30.18R
FORT PICKETT*  FAIR      58  49  74 CALM      30.19R
CHASE CITY*    FAIR      58  53  84 CALM      30.19R
CLARKSVILLE*   FAIR      55  52  88 CALM      30.19R
SOUTH HILL*    CLEAR     53  51  95 CALM      30.25R
LAWRENCEVILLE* FAIR      56  51  82 CALM      30.19R
EMPORIA*       PTCLDY    50  46  87 CALM      30.21R
$$

VAZ088>098-040400-
SOUTHEAST VIRGINIA

CITY           SKY/WX    TMP DP  RH WIND       PRES   REMARKS
NORFOLK        PTCLDY    63  48  58 S3        30.18R
VIRGINIA BEACH MOCLDY    66  50  56 S6        30.19R
NORFOLK NAVAL  MOCLDY    71  48  43 S5        30.20R
WEST POINT*    CLEAR     57  48  73 CALM      30.19S
SALUDA*        FAIR      63  47  57 S8        30.17R
NEWPORT NEWS   PTCLDY    61  49  64 CALM      30.18R
LANGLEY AFB    PTCLDY    62  52  71 SW5       30.17R
FORT EUSTIS    PTCLDY    61  53  75 SE1       30.16R
WILLIAMSBURG*  PTCLDY    61  55  82 CALM      30.19R
HR EXEC AP*    FAIR      54  50  87 CALM      30.21R
FRANKLIN*      PTCLDY    55  51  86 CALM      30.20R
WAKEFIELD      PTCLDY    57  52  83 CALM      30.19R
$$

VAZ020-022-025-037-045-040400-
WEST CENTRAL AND SOUTHWEST VIRGINIA

CITY           SKY/WX    TMP DP  RH WIND       PRES   REMARKS
STAUNTON*      CLEAR     53  46  77 CALM      30.20S
WAYNESBORO*    FAIR      59  40  49 SW3       30.19S
HOT SPRINGS VA CLEAR     58  37  44 S10G17    30.26R
LYNCHBURG      CLEAR     55  45  68 CALM      30.21R
DANVILLE       CLEAR     55  49  80 CALM      30.20R
SOUTH BOSTON*  FAIR      54  50  85 CALM      30.19S
MARTINSVILLE   CLEAR     54  53  99 CALM      30.23R
ROANOKE        PTCLDY    61  45  55 CALM      30.22R
BLACKSBURG     CLEAR     53  44  70 CALM      30.25S
DUBLIN*        CLEAR     59  48  65 CALM      30.24R
MARION*        CLEAR     58  46  64 CALM      30.25R
HILLSVILLE*    PTCLDY    62  46  56 S7        30.24R
RICHLANDS*     FAIR      63  29  28 S5        30.21S
WISE*          PTCLDY    57  36  44 CALM      30.23R
ABINGDON*      PTCLDY    57  45  65 CALM      30.20R
$$

MDZ021>025-VAZ099-100-040400-
SOUTHERN MARYLAND AND THE DELMARVA PENINSULA

CITY           SKY/WX    TMP DP  RH WIND       PRES   REMARKS
PATUXENT RIVER CLEAR     65  42  43 S9        30.15S
BAY BRIDGE APT   N/A    N/A N/A N/A S8        30.15S
LEONARDTOWN    CLEAR     64  39  39 CALM      30.17S
DOVER          CLEAR     57  57 100 SE3       30.12R
GEORGETOWN     CLEAR     60  49  66 SW8       30.17R
EASTON         CLEAR     66  47  50 SW3       30.19R
CAMBRIDGE      CLEAR     59  46  63 SE3       30.16R
SALISBURY      CLEAR     56  50  80 CALM      30.16S
OCEAN CITY     CLEAR     53  51  93 CALM      30.17R FOG
WALLOPS ISLAND CLEAR     60  48  64 SW6       30.17S
ACCOMACK*      CLEAR     61  41  48 S6        30.18R
$$

NCZ012>017-030>032-040400-
NORTH CENTRAL AND EASTERN NORTH CAROLINA

CITY           SKY/WX    TMP DP  RH WIND       PRES   REMARKS
ROANOKE RAPIDS FAIR      55  52  88 CALM      30.20R
RALEIGH        PTCLDY    60  49  66 CALM      30.22R
ELIZABETH CITY PTCLDY    65  51  60 S9        30.21R
AHOSKIE*       CLEAR     55  51  88 CALM      30.21R
EDENTON*       PTCLDY    65  51  60 SW9       30.22R
CURRITUCK*     PTCLDY    65  50  60 S3        30.21S
KILL DEVIL HLS PTCLDY    64  51  64 SW5       30.21S
MANTEO         PTCLDY    63  53  69 SW8       30.23R
CAPE HATTERAS  CLEAR     60  53  77 W7        30.24R
TARBORO*       FAIR      57  53  85 S5        30.22R
GOLDSBORO      CLEAR     64  46  51 S1        30.21R
WASHINGTON     CLEAR     63  46  52 S3        30.24R
GREENVILLE     CLEAR     63  50  63 S6        30.23R
NEW BERN       CLEAR     59  50  72 CALM      30.25R
WILMINGTON     CLEAR     60  52  74 CALM      30.24R
$$

VAZ048-040400-
ELSEWHERE

CITY           SKY/WX    TMP DP  RH WIND       PRES   REMARKS
HARRISBURG PA  PTCLDY    69  46  43 VRB5      30.12R
BALTIMORE      CLEAR     60  46  59 S5        30.14R
ANNAPOLIS      CLEAR     63  49  60 CALM      30.14R
ANDREWS AFB    CLEAR     64  45  49 S8        30.15R
PHILADELPHIA   CLEAR     65  44  46 SW5       30.15R
HENDERSON NC   CLEAR     58  48  70 S3        30.20S
GREENSBORO     MOCLDY    64  47  53 S3        30.20R
ROCKY MOUNT    CLEAR     63  48  58 S8        30.22R
$$

VAZ100-040400-
MARINE

STATION/POSITION TIME  TEMP    WIND        PRES    WAVE   SWELL
                       AIR SEA DIR/SP/G            HT/PER HT/PER
                 (UTC) (F)     (DEG/KT/KT) (MB)    (FT/S) (FT/S)
BRANDYWINE LGT   0200   55 53  150/ 12/ 13 1021.2R
CAPE MAY NJ      0200   55 62  110/  6/  7 1021.0R
LEWES DE         0200   63 57  190/  4/  5 1021.0R
15NM E FENWICK I 0250   53 52              1021.3R   4/10
OCEAN-CITY-INLET 0200   57 53  200/  4/  4 1021.0R
WACHAPREAGUE VA  0200   65 63  220/  5/  7 1021.6R
THOMAS POINT MD  0300   63 59  180/  7/  8 1021.5R
GOOSES REEF MD   0300   63 59                N/A     0
COVE POINT MD    0200   70     210/ 12/ 14 1021.5R
SOLOMONS ISLAND  0212      62                N/A
BISHOPS HEAD MD  0200   65 66  210/  9/ 10 1020.7R
PINEY POINT MD   0200          210/  7/  7   N/A
CAMBRIDGE MD     0200   66 61  200/  3/  5 1020.7R
LEWISETTA VA     0200   68 63              1020.9R
RAPPAHANNOCK LGT 0200          160/ 10/ 10 1022.0R
YORK RVR RNG VA  0200   64     180/  9/  9 1021.0R
YORKTOWN VA      0200          180/  2/  4 1021.3R
JAMESTOWN VA     0300   62 64     CALM     1021.0R
DOMINION TERM VA 0200   68     160/  6/  7 1021.8R
KIPTOPEKE VA     0200      63  160/ 10/ 11   N/A
CHES BAY BRIDGE  0200   68 58  160/  9/ 10 1021.4R
CAPE HENRY VA    0200   68     190/  8/  9 1020.6R
CHESAPEAKE LGHT  0200   64     190/ 22/ 23 1022.1R
WILLOUBY STN VA  0200   70     180/  7/  7 1022.4R
S CRANEY ISL VA  0200          190/  3/  5 1021.8R
CAPE HENRY BUOY  0228      54                N/A     3/11   2/11
1ST LANDING BUOY 0300      60                N/A     2/ 6
CAPE CHARLES BUO 0226      57                N/A     3/11   3/11
OFFSHORE WE BUOY 0211      54                N/A     3/13   3/13
64NM E OF VA BCH 0250   63 62  220/ 12/ 14 1022.3R   5/11   5/11
DUCK PIER NC     0200   67 55  190/ 12/ 14 1021.7R
44056 DUCK FRF   0211      56                N/A     4/12   2/12
OREGON INLET NC  0200   63 65  200/  6/  8 1023.2R
HATTERAS NC      0200   65 65  230/  6/  9 1023.2R
DIAMOND SHLS NC  0250   64 60  260/  6/  8 1023.8R   5/ 9   5/ 9
CAPE LOOKOUT NC  0300   67     210/  6/  7 1024.1R
$$



USA.gov is the U.S. government's official web portal to all federal, state and local government web resources and services.